Wind_Speed
15 15 14 13 13 15 14 15 22 21 20 19 19 18 17 17 17 17 17 17 17 16 18 19 19 21 21 22 18 25 20 20 16 13 15 17 18 18 19 19 17 17 17
18 18 17 15 14 14 15 16 20 20 20 20 20 19 20 20 20 20 20 20 19 18 16 16 17 17 17 18 16 12 10 13 16 17 18 20 22 23 23 23 22 22 21
18 19 17 17 16 16 15 15 16 18 20 21 22 21 20 21 22 20 22 22 20 18 17 15 15 16 15 15 14 13 14 18 20 19 20 18 21 23 21 22 23 25 25
18 21 20 19 17 17 15 14 16 16 16 16 19 19 20 20 18 18 17 19 21 20 18 17 15 16 17 17 16 17 17 19 21 20 19 18 18 16 15 19 26 24 21
22 19 20 19 20 18 16 17 16 18 17 17 18 19 20 20 17 17 17 18 17 16 16 14 17 18 18 18 19 18 19 19 20 18 21 19 18 18 18 15 11 10 8
19 21 18 19 21 19 18 17 19 19 21 21 20 20 20 20 18 19 17 18 17 17 17 20 12 21 20 19 19 19 19 20 21 20 20 16 17 15 18 15 10 11 14
23 26 23 19 18 19 19 18 17 17 17 17 16 19 20 21 21 21 22 20 19 16 15 13 15 22 20 17 23 19 15 17 20 19 18 17 16 15 15 11 9 13 16
18 22 23 25 23 21 19 19 18 18 18 17 20 18 18 22 23 23 20 18 17 17 17 17 17 20 21 17 23 17 20 18 21 19 18 15 16 16 17 14 16 15 18
19 20 22 22 22 21 19 18 19 18 17 17 18 18 18 20 21 23 22 20 18 18 19 19 20 21 23 20 20 22 22 22 18 15 17 18 17 18 14 14 14 13 16
15 19 18 20 20 23 20 19 18 18 18 19 19 23 23 24 23 28 24 20 19 19 19 20 21 22 24 21 20 21 22 20 19 17 19 19 14 14 14 14 12 12 13
12 15 21 23 22 20 21 22 21 19 19 20 21 21 29 27 24 29 24 14 16 17 18 19 20 23 25 21 19 19 18 15 14 14 12 13 15 15 16 17 13 11 13
10 12 18 19 25 28 23 23 22 21 20 21 21 21 23 16 12 14 16 15 18 14 15 16 18 21 21 18 17 16 17 16 14 12 16 16 16 15 17 19 19 19 18
5 8 11 18 21 22 23 23 24 25 23 22 22 21 21 18 15 13 15 18 15 10 14 15 13 11 10 12 14 17 17 16 13 12 13 13 13 13 15 16 15 14 14
8 11 10 10 16 23 27 27 28 26 26 25 24 24 25 18 16 15 16 16 14 12 12 9 7 6 8 10 10 11 13 14 12 14 12 12 10 10 11 11 11 10 11
9 11 12 11 10 12 18 27 27 28 27 23 24 26 34 22 18 19 18 19 18 14 13 11 9 7 7 8 9 9 8 8 9 10 8 9 10 10 10 9 7 6 8
10 10 12 12 12 10 10 15 21 23 22 23 24 31 32 24 22 22 19 20 18 14 14 13 10 8 8 9 9 9 9 9 8 9 10 12 13 11 10 9 9 9 10
11 12 12 13 13 12 12 11 12 15 17 22 24 26 24 25 25 25 20 20 23 18 17 13 10 10 9 10 10 11 12 12 13 13 14 15 13 13 13 13 13 13 16
14 14 14 14 14 14 14 13 13 10 8 10 11 11 11 15 19 22 20 24 19 18 21 16 14 11 12 13 13 12 14 14 15 15 16 15 15 16 16 14 15 18 20
14 16 15 14 12 14 16 16 16 15 17 16 16 18 19 18 20 18 20 23 25 20 24 20 17 14 15 16 17 16 15 16 16 17 17 17 19 20 19 19 21 22 23
15 17 17 16 17 17 14 16 17 18 18 19 19 19 19 22 23 24 26 26 27 25 26 25 21 18 18 19 19 20 18 18 19 19 20 20 22 21 22 23 25 25 25
18 17 19 19 19 17 14 13 16 19 20 20 20 20 20 21 23 24 24 26 29 29 30 29 27 23 22 22 22 22 22 22 22 23 23 23 24 24 24 26 26 26 27
21 19 19 20 19 17 16 17 19 17 22 22 22 22 22 21 21 22 25 26 27 29 31 33 31 29 28 27 26 25 24 24 25 26 26 26 26 27 28 28 27 28 29
19 18 16 18 18 20 18 19 22 20 17 23 23 23 24 23 22 22 23 24 27 30 32 32 32 33 33 31 29 28 27 27 28 28 29 29 31 30 31 32 30 30 31
21 19 17 17 17 18 17 17 19 17 21 22 26 24 24 25 25 25 25 25 26 27 29 30 30 32 32 31 30 30 30 31 31 31 32 31 34 33 33 33 32 32 32
23 21 18 17 19 17 17 18 15 17 17 19 21 23 25 25 27 27 28 28 29 28 29 30 31 31 31 31 31 32 33 33 34 34 35 36 34 37 36 33 35 33 33
29 23 20 20 20 19 17 18 16 16 16 21 20 22 28 28 28 29 28 28 27 29 31 33 33 33 32 33 33 34 35 35 37 38 35 38 38 37 36 36 33 36 33
Wind_Direction
211 205 205 213 209 207 210 221 211 209 209 211 213 217 225 230 230 235 240 248 255 260 266 268 271 277 277 280 268 270 265 242 260 263 264 266 264 264 265 265 266 269 273
219 216 209 208 213 214 211 215 217 215 216 217 219 221 226 234 241 244 252 251 257 263 263 266 272 275 277 283 294 300 247 251 262 266 264 266 268 269 265 262 267 266 267
221 224 220 217 217 218 220 220 219 220 228 231 233 233 237 239 243 248 252 252 256 258 260 263 268 272 275 279 282 278 267 267 271 272 272 269 281 291 267 266 266 267 264
221 220 220 216 216 222 221 227 227 226 230 237 238 238 240 243 241 242 247 251 253 255 258 261 263 271 277 280 281 282 281 279 273 272 278 280 295 303 288 276 271 270 264
223 213 213 214 214 217 223 232 231 230 229 239 243 243 245 244 240 237 237 246 250 252 252 262 276 276 278 280 278 280 284 286 297 283 284 285 291 301 314 309 272 260 248
224 216 219 219 219 222 232 233 233 236 238 240 239 246 247 245 247 241 246 246 256 263 272 275 288 282 276 279 283 276 281 284 283 284 285 287 285 297 309 305 278 273 278
234 227 227 219 220 224 232 237 230 233 237 243 246 244 247 249 244 249 252 251 255 261 268 267 251 263 274 278 269 270 275 280 283 285 287 279 286 287 292 302 294 282 270
234 225 225 227 233 225 231 237 232 242 247 250 246 241 246 247 247 250 249 244 244 258 269 268 266 269 276 275 283 290 281 284 281 283 291 293 282 281 280 293 280 287 284
245 238 237 244 234 217 229 247 238 243 246 244 238 238 258 257 246 242 246 242 244 255 262 266 268 272 277 278 277 282 283 274 276 281 286 288 285 282 289 284 290 289 272
241 242 247 235 243 236 239 245 237 243 245 244 243 250 258 259 250 246 235 235 244 253 259 265 273 278 276 275 269 266 270 271 269 279 286 280 277 274 277 284 285 282 279
261 242 247 242 239 235 241 239 235 241 241 246 249 257 259 259 246 252 238 235 243 252 263 272 277 280 276 270 267 268 270 269 280 281 290 258 280 278 274 280 280 272 296
266 260 249 238 230 236 236 236 235 239 246 251 249 257 270 249 241 242 240 241 250 238 274 278 280 275 269 263 261 268 271 268 270 258 270 269 275 275 277 279 273 269 282
290 286 272 255 242 238 235 238 245 243 242 242 267 267 268 264 245 250 249 249 240 233 265 282 276 269 262 260 263 271 269 248 259 259 267 272 277 286 288 281 271 269 266
310 309 303 300 258 252 252 233 236 240 249 252 256 259 261 249 243 240 246 253 244 235 262 268 264 281 282 276 272 281 259 265 262 259 268 274 284 291 302 305 289 279 272
332 317 317 316 314 269 252 244 247 248 244 250 260 261 258 232 233 236 244 254 249 227 249 248 267 283 283 279 283 282 285 267 254 257 265 277 290 299 303 309 307 287 282
329 324 321 317 310 305 276 250 249 258 257 254 258 259 262 257 236 239 243 247 243 225 244 247 261 270 276 282 282 281 273 267 263 262 272 279 281 283 293 305 309 313 313
325 315 311 309 309 301 291 288 270 258 256 249 247 255 259 252 235 236 239 235 229 231 236 244 261 269 277 275 273 274 272 270 271 273 274 275 278 285 290 292 291 289 298
322 322 323 309 302 300 293 281 274 273 256 251 246 260 245 246 255 243 239 237 245 228 237 242 254 270 281 279 276 271 272 274 277 279 278 281 284 285 286 283 289 297 298
323 318 319 310 298 293 286 283 276 270 263 262 258 253 253 253 246 252 245 246 246 237 245 246 253 265 277 281 280 274 273 277 278 276 278 278 278 278 276 278 287 293 293
327 327 320 312 319 320 305 276 273 266 260 261 258 251 248 254 252 250 252 247 244 246 246 249 254 263 275 283 280 276 274 273 276 275 275 273 272 273 274 280 287 291 291
321 322 323 320 311 309 314 313 286 270 263 254 253 252 249 250 256 257 251 250 247 247 249 251 255 264 272 281 280 275 273 275 274 272 274 273 272 273 276 280 284 287 292
318 315 312 316 315 313 311 301 297 298 266 259 255 253 252 248 248 254 253 255 253 250 253 253 257 263 272 278 274 270 270 273 273 274 276 276 274 275 279 281 284 288 292
312 304 306 311 314 318 318 314 307 293 289 260 255 254 253 252 252 252 253 253 253 253 254 257 261 265 269 273 270 267 271 271 270 271 273 275 276 277 280 281 284 288 292
317 319 310 304 303 309 316 313 319 298 293 289 250 252 256 254 250 252 253 253 254 255 256 259 264 267 268 267 267 268 271 272 272 273 273 273 277 277 277 280 283 287 289
305 314 314 301 294 293 302 306 313 308 294 298 261 244 255 257 256 255 255 256 257 259 259 259 259 261 260 261 263 267 269 271 272 272 276 277 275 279 280 281 284 285 286
294 305 312 307 301 295 294 299 304 305 295 287 285 274 253 255 259 260 261 263 265 267 267 267 265 262 262 265 266 267 269 272 275 276 275 279 280 278 279 281 283 285 288
Height
5884 5885 5888 5890 5891 5893 5895 5897 5898 5900 5902 5903 5905 5906 5908 5909 5911 5912 5913 5913 5913 5914 5914 5914 5914 5914 5913 5911 5911 5910 5908 5911 5910 5909 5910 5910 5910 5909 5909 5909 5909 5909 5908
5884 5884 5885 5888 5891 5892 5893 5895 5897 5899 5900 5901 5902 5904 5905 5907 5908 5909 5910 5910 5910 5910 5910 5910 5910 5910 5909 5908 5908 5907 5907 5907 5907 5907 5906 5906 5906 5906 5905 5904 5905 5905 5904
5881 5883 5884 5886 5888 5890 5892 5893 5894 5897 5898 5900 5901 5902 5903 5904 5904 5905 5906 5906 5906 5906 5906 5906 5905 5905 5905 5905 5905 5905 5905 5905 5904 5902 5901 5901 5902 5900 5900 5900 5900 5899 5900
5879 5880 5882 5883 5885 5887 5889 5891 5892 5893 5895 5897 5898 5898 5899 5900 5901 5902 5902 5903 5902 5902 5903 5903 5901 5901 5901 5902 5901 5901 5902 5901 5900 5899 5898 5898 5898 5896 5895 5895 5894 5893 5893
5875 5877 5879 5881 5882 5884 5886 5888 5889 5891 5892 5893 5895 5895 5896 5897 5897 5898 5898 5898 5898 5899 5900 5901 5900 5899 5899 5898 5897 5897 5898 5897 5896 5895 5894 5894 5894 5892 5891 5890 5890 5890 5890
5872 5874 5875 5877 5878 5880 5882 5884 5886 5887 5888 5889 5891 5892 5893 5894 5894 5895 5895 5895 5895 5895 5896 5887 5895 5888 5897 5896 5895 5892 5893 5894 5892 5891 5891 5889 5889 5889 5889 5888 5887 5887 5887
5868 5870 5872 5873 5874 5875 5878 5880 5882 5884 5885 5886 5887 5888 5889 5889 5890 5891 5891 5891 5891 5891 5892 5893 5896 5895 5893 5893 5886 5889 5888 5887 5889 5888 5887 5886 5886 5885 5885 5884 5884 5884 5884
5862 5866 5868 5870 5870 5872 5874 5876 5878 5880 5881 5883 5883 5884 5885 5885 5885 5885 5886 5886 5887 5888 5888 5888 5889 5887 5887 5888 5882 5879 5884 5883 5886 5885 5884 5883 5882 5882 5881 5880 5881 5881 5881
5860 5862 5864 5866 5867 5868 5870 5872 5874 5875 5876 5878 5878 5880 5880 5881 5882 5881 5882 5882 5883 5884 5884 5883 5883 5883 5883 5884 5882 5879 5879 5882 5882 5880 5879 5879 5879 5879 5878 5878 5877 5877 5877
5858 5859 5860 5862 5864 5866 5867 5869 5870 5871 5872 5873 5874 5875 5876 5876 5877 5873 5874 5877 5878 5879 5879 5878 5877 5877 5877 5878 5879 5878 5877 5877 5877 5876 5874 5875 5875 5875 5875 5874 5874 5874 5872
5855 5855 5857 5857 5858 5861 5862 5864 5865 5866 5868 5869 5870 5871 5869 5867 5871 5871 5867 5870 5874 5874 5874 5874 5873 5872 5871 5872 5872 5873 5873 5872 5871 5871 5871 5871 5872 5871 5871 5870 5870 5871 5871
5853 5854 5854 5854 5853 5855 5857 5859 5860 5862 5863 5864 5865 5866 5866 5864 5865 5866 5867 5869 5870 5870 5871 5871 5869 5868 5867 5867 5868 5868 5868 5868 5867 5867 5868 5868 5868 5868 5867 5867 5867 5868 5869
5853 5852 5852 5852 5851 5850 5851 5854 5856 5858 5859 5860 5860 5861 5861 5861 5862 5863 5864 5865 5865 5866 5867 5867 5865 5865 5863 5864 5865 5864 5864 5864 5864 5865 5865 5865 5865 5865 5864 5863 5863 5864 5865
5850 5850 5849 5848 5847 5846 5846 5848 5849 5851 5852 5854 5855 5855 5856 5856 5857 5858 5860 5861 5861 5863 5864 5863 5863 5862 5861 5861 5862 5862 5862 5861 5862 5862 5863 5864 5863 5863 5862 5861 5860 5861 5862
5847 5848 5847 5846 5844 5843 5842 5842 5841 5844 5845 5847 5849 5850 5851 5848 5851 5854 5855 5857 5857 5859 5860 5860 5860 5859 5859 5860 5860 5860 5860 5859 5860 5861 5861 5861 5862 5861 5861 5860 5859 5859 5860
5845 5845 5844 5844 5842 5841 5841 5839 5839 5840 5840 5842 5844 5846 5847 5848 5850 5851 5851 5852 5853 5855 5857 5857 5857 5857 5857 5857 5857 5858 5858 5857 5857 5858 5858 5859 5859 5858 5858 5857 5857 5857 5857
5844 5843 5842 5841 5840 5840 5839 5838 5837 5836 5835 5836 5838 5839 5840 5842 5844 5846 5847 5849 5848 5850 5853 5853 5854 5854 5854 5855 5855 5856 5856 5856 5856 5856 5856 5857 5856 5855 5855 5855 5855 5855 5854
5842 5841 5840 5839 5838 5838 5837 5836 5835 5836 5834 5833 5834 5835 5836 5837 5840 5842 5844 5845 5843 5846 5849 5849 5851 5850 5851 5852 5852 5852 5852 5853 5853 5853 5854 5853 5852 5852 5852 5852 5851 5850 5850
5841 5839 5837 5835 5834 5833 5832 5832 5832 5831 5832 5832 5832 5833 5834 5835 5836 5838 5840 5842 5840 5841 5845 5846 5846 5846 5846 5847 5847 5847 5847 5847 5848 5848 5848 5848 5848 5848 5847 5847 5846 5845 5844
5840 5837 5836 5833 5831 5829 5827 5827 5827 5827 5828 5827 5828 5829 5829 5830 5831 5833 5834 5837 5837 5839 5841 5842 5842 5842 5841 5842 5841 5842 5842 5842 5842 5843 5842 5842 5842 5841 5841 5841 5840 5839 5838
5838 5835 5832 5830 5828 5825 5823 5822 5821 5821 5822 5822 5822 5822 5824 5825 5827 5827 5829 5831 5832 5833 5836 5836 5837 5837 5837 5837 5836 5836 5836 5836 5836 5837 5836 5836 5836 5836 5835 5834 5833 5831 5830
5836 5833 5830 5828 5825 5822 5820 5818 5817 5816 5816 5817 5817 5817 5819 5820 5821 5822 5824 5825 5826 5827 5829 5830 5831 5831 5831 5831 5830 5830 5830 5830 5830 5830 5830 5830 5829 5828 5828 5826 5825 5823 5821
5833 5830 5827 5824 5821 5819 5817 5814 5811 5809 5809 5810 5811 5813 5813 5815 5815 5816 5818 5819 5820 5821 5822 5823 5824 5824 5824 5824 5823 5822 5822 5823 5823 5822 5822 5822 5820 5821 5819 5817 5816 5815 5813
5829 5825 5823 5821 5818 5815 5813 5810 5807 5805 5804 5803 5804 5805 5807 5807 5808 5810 5811 5811 5813 5814 5814 5815 5816 5816 5816 5815 5815 5815 5815 5814 5815 5814 5813 5814 5811 5811 5810 5809 5807 5805 5803
5826 5822 5819 5817 5814 5811 5808 5806 5803 5801 5799 5798 5796 5798 5800 5801 5801 5802 5803 5803 5804 5804 5805 5805 5805 5806 5806 5806 5806 5806 5805 5806 5805 5805 5804 5802 5804 5801 5800 5801 5797 5796 5794
5824 5817 5814 5812 5809 5806 5803 5801 5799 5797 5794 5792 5793 5792 5793 5793 5794 5794 5795 5796 5797 5798 5799 5800 5799 5799 5799 5798 5798 5797 5796 5796 5796 5795 5796 5794 5792 5792 5791 5790 5788 5785 5784